Location: Franzen
(48.6167°N, 15.3833°E)
Time: 02:09:08
(UTC+00:00)

Transit 2A - Pass Details

Date: 12 August 2021
Orbit: 594 x 964 km, 66.7° (Epoch: 27 September)

Event Time Altitude Azimuth Distance (km) Brightness Sun altitude
Rises 12:48:54 0° 310° (NW) 3,349 9.3 49.9°
Reaches altitude 10° 12:52:16 10° 289° (WNW) 2,486 9.0 49.5°
Maximum altitude 12:55:30 16° 255° (WSW) 2,174 9.2 49.1°
Drops below altitude 10° 12:58:52 10° 220° (SW) 2,598 9.7 48.7°
Sets 13:02:32 0° 200° (SSW) 3,585 10.0 48.3°
